Rochester, NH

4:51 PM EDT on August 18, 2017 (GMT -0400)
Skyhaven

Weather History for KDAW - March, 2013

Change the Weather History Date:

Friday, March 15, 2013

  Actual Average (KPSM) Record (KPSM)
Temperature  
Mean Temperature 27 °F -  
Max Temperature 37 °F 38 °F 67 °F (1990)
Min Temperature 17 °F 23 °F 5 °F (1993)
Degree Days  
Heating Degree Days 38    
Moisture  
Dew Point 16 °F    
Average Humidity 65    
Maximum Humidity 93    
Minimum Humidity 27    
Precipitation  
Precipitation 0.03 in - - ()
Sea Level Pressure  
Sea Level Pressure 29.67 in    
Wind  
Wind Speed 9 mph (WNW)    
Max Wind Speed 17 mph    
Max Gust Speed 32 mph    
Visibility 7 miles    
Events Fog , Snow    
Averages and records for this station are not official NWS values.
T = Trace of Precipitation, MM = Missing Value Source: NWS Daily Summary

Daily Weather History Graph

Daily Weather History Graph

Search for Another Location

Airport or City:

Trip Planner

Search our weather history database for the weather conditions in past years. The results will help you decide how hot, cold, wet, or windy it might be!

Date:

Astronomy

Mar. 15, 2013 Rise Set
Actual Time 6:55 AM EDT 6:50 PM EDT
Civil Twilight 6:27 AM EDT 7:18 PM EDT
Nautical Twilight 5:53 AM EDT 7:51 PM EDT
Astronomical Twilight 5:20 AM EDT 8:25 PM EDT
Moon 8:36 AM EDT (3/15) 11:09 PM EDT (3/15)
Length of Visible Light 12h 51m
Length of Day
11h 54m
Waxing Crescent, 15% of the Moon is Illuminated
Mar 15
Waxing Crescent
Mar 19
First Quarter
Mar 27
Full
Apr 3
Last Quarter
Apr 10
New

Hourly Weather History & Observations

Time (EDT) Temp. Windchill Dew Point Humidity Pressure Visibility Wind Dir Wind Speed Gust Speed Precip Events Conditions
12:51 AM 19.0 °F 4.5 °F 1.0 °F 46% 29.77 in 10.0 mi NW 16.1 mph 28.8 mph N/A   Clear
1:51 AM 19.0 °F 4.0 °F 1.9 °F 47% 29.78 in 10.0 mi NW 17.3 mph 27.6 mph N/A   Clear
2:51 AM 18.0 °F 4.8 °F 1.0 °F 48% 29.78 in 10.0 mi NW 12.7 mph 19.6 mph N/A   Clear
3:51 AM 18.0 °F 6.9 °F -0.0 °F 45% 29.78 in 10.0 mi WNW 9.2 mph 27.6 mph N/A   Clear
4:51 AM 17.1 °F 3.6 °F -0.0 °F 47% 29.78 in 10.0 mi WNW 12.7 mph 20.7 mph N/A   Clear
5:51 AM 17.1 °F 5.8 °F -0.0 °F 47% 29.79 in 10.0 mi West 9.2 mph 17.3 mph N/A   Clear
6:51 AM 17.1 °F 5.0 °F 1.9 °F 52% 29.80 in 10.0 mi WNW 10.4 mph 19.6 mph N/A   Clear
7:51 AM 18.0 °F 6.9 °F 1.9 °F 50% 29.80 in 10.0 mi WNW 9.2 mph 18.4 mph N/A   Clear
8:51 AM 21.0 °F 9.9 °F 3.9 °F 48% 29.80 in 10.0 mi WNW 10.4 mph 18.4 mph N/A   Clear
9:51 AM 23.0 °F 12.4 °F 5.0 °F 46% 29.79 in 10.0 mi West 10.4 mph - N/A   Clear
10:51 AM 25.0 °F 14.2 °F 7.0 °F 46% 29.78 in 10.0 mi WNW 11.5 mph 19.6 mph N/A   Partly Cloudy
11:51 AM 28.0 °F 19.3 °F 6.1 °F 39% 29.75 in 10.0 mi WNW 9.2 mph - N/A   Mostly Cloudy
12:51 PM 30.9 °F 23.5 °F 1.9 °F 29% 29.72 in 10.0 mi West 8.1 mph 17.3 mph N/A   Scattered Clouds
1:51 PM 35.1 °F 29.3 °F 3.9 °F 27% 29.68 in 10.0 mi Variable 6.9 mph - N/A   Partly Cloudy
2:51 PM 36.0 °F 31.1 °F 6.1 °F 29% 29.64 in 10.0 mi Variable 5.8 mph - N/A   Clear
3:51 PM 37.9 °F 33.5 °F 8.1 °F 29% 29.62 in 10.0 mi Variable 5.8 mph - N/A   Mostly Cloudy
4:51 PM 37.9 °F 33.5 °F 8.1 °F 29% 29.60 in 10.0 mi Variable 5.8 mph - N/A   Overcast
5:51 PM 35.1 °F 29.3 °F 17.1 °F 48% 29.60 in 10.0 mi West 6.9 mph - N/A   Overcast
6:51 PM 34.0 °F 27.2 °F 21.0 °F 59% 29.61 in 10.0 mi West 8.1 mph 20.7 mph N/A   Overcast
7:51 PM 32.0 °F - 25.0 °F 75% 29.61 in 10.0 mi Calm Calm - N/A   Clear
8:51 PM 30.9 °F - 24.1 °F 76% 29.62 in 10.0 mi Calm Calm - N/A   Mostly Cloudy
9:13 PM 30.2 °F 25.4 °F 26.6 °F 86% 29.61 in 1.8 mi SW 4.6 mph - 0.00 in Snow Light Snow
9:22 PM 30.2 °F - 28.4 °F 93% 29.61 in 1.0 mi Calm Calm - 0.00 in Snow Light Snow
9:27 PM 30.2 °F 26.7 °F 28.4 °F 93% 29.61 in 2.0 mi Variable 3.5 mph - 0.00 in Snow Light Snow
9:29 PM 30.2 °F - 28.4 °F 93% 29.61 in 3.0 mi Calm Calm - 0.00 in Snow Light Snow
9:42 PM 30.2 °F - 28.4 °F 93% 29.61 in 4.0 mi Calm Calm - 0.00 in Snow Light Snow
9:46 PM 30.2 °F - 28.4 °F 93% 29.61 in 2.5 mi Calm Calm - 0.00 in Snow Light Snow
9:51 PM 30.9 °F - 28.0 °F 89% 29.61 in 2.0 mi Calm Calm - 0.00 in Snow Light Snow
10:03 PM 30.2 °F - 28.4 °F 93% 29.60 in 8.0 mi Calm Calm - 0.00 in Snow Light Snow
10:51 PM 30.0 °F - 28.0 °F 92% 29.60 in 6.0 mi Calm Calm - 0.00 in Snow Light Snow
11:11 PM 30.2 °F - 28.4 °F 93% 29.61 in 2.5 mi Calm Calm - 0.00 in Snow Light Snow
11:16 PM 30.2 °F 26.7 °F 28.4 °F 93% 29.61 in 0.8 mi Variable 3.5 mph - 0.01 in Snow Light Snow
11:27 PM 30.2 °F 24.3 °F 28.4 °F 93% 29.61 in 0.5 mi West 5.8 mph - 0.02 in Fog , Snow Snow
11:31 PM 30.2 °F 24.3 °F 28.4 °F 93% 29.61 in 1.0 mi Variable 5.8 mph - 0.02 in Snow Light Snow
11:34 PM 30.2 °F 24.3 °F 28.4 °F 93% 29.62 in 1.5 mi West 5.8 mph - 0.02 in Snow Light Snow
11:51 PM 30.0 °F 18.7 °F 26.1 °F 85% 29.64 in 1.5 mi NW 16.1 mph 32.2 mph 0.03 in Snow Light Snow
11:54 PM 30.2 °F 21.3 °F 26.6 °F 86% 29.63 in 3.0 mi NNW 10.4 mph 27.6 mph 0.00 in Snow Light Snow